This is the latest recevied weather packets stored in our database for station/object K1BWE-1. If no packets are shown the sender has not sent any weather packets the latest 10 day(s).
| Time | Temp. | Humidity | Pressure | Rain* | Wind** | Luminosity | Snow |
|---|---|---|---|---|---|---|---|
| 1777676871 | 28.89° C | 20% | 1012 hPa | 0 mm | - | 424 W/m² | - |
| 1777676569 | 28.33° C | 21% | 1012.2 hPa | 0 mm | - | 478 W/m² | - |
| 1777676266 | 28.33° C | 20% | 1012.2 hPa | 0 mm | - | 482 W/m² | - |
| 1777675964 | 28.33° C | 20% | 1012.1 hPa | 0 mm | - | 470 W/m² | - |
| 1777675659 | 28.33° C | 21% | 1012 hPa | 0 mm | - | 518 W/m² | - |
| 1777675357 | 28.89° C | 20% | 1012.4 hPa | 0 mm | - | 540 W/m² | - |
| 1777675053 | 28.33° C | 21% | 1012.4 hPa | 0 mm | - | 541 W/m² | - |
| 1777674750 | 27.78° C | 24% | 1012.4 hPa | 0 mm | - | 531 W/m² | - |
| 1777674447 | 28.33° C | 20% | 1012.6 hPa | 0 mm | - | 527 W/m² | - |
| 1777674144 | 28.89° C | 21% | 1012.5 hPa | 0 mm | - | 518 W/m² | - |
| 1777673840 | 28.33° C | 21% | 1012.4 hPa | 0 mm | - | 521 W/m² | - |
| 1777673537 | 27.78° C | 24% | 1012.8 hPa | 0 mm | - | 526 W/m² | - |
| 1777673235 | 27.78° C | 21% | 1012.9 hPa | 0 mm | - | 558 W/m² | - |
| 1777672932 | 28.33° C | 21% | 1012.8 hPa | 0 mm | - | 565 W/m² | - |
| 1777672629 | 27.78° C | 24% | 1012.7 hPa | 0 mm | - | 573 W/m² | - |
| 1777672324 | 27.78° C | 21% | 1012.9 hPa | 0 mm | - | 583 W/m² | - |
| 1777672019 | 27.78° C | 21% | 1012.8 hPa | 0 mm | - | 596 W/m² | - |
| 1777671715 | 27.78° C | 22% | 1012.8 hPa | 0 mm | - | 618 W/m² | - |
| 1777671412 | 27.78° C | 23% | 1012.8 hPa | 0 mm | - | 629 W/m² | - |
| 1777671108 | 28.89° C | 22% | 1012.9 hPa | 0 mm | - | 669 W/m² | - |
| 1777670805 | 27.78° C | 23% | 1013 hPa | 0 mm | - | 704 W/m² | - |
| 1777670501 | 27.78° C | 23% | 1013.1 hPa | 0 mm | - | 714 W/m² | - |
| 1777670198 | 27.78° C | 22% | 1013.3 hPa | 0 mm | - | 703 W/m² | - |
| 1777669896 | 27.78° C | 25% | 1013.2 hPa | 0 mm | - | 700 W/m² | - |
| 1777669592 | 27.22° C | 26% | 1013.3 hPa | 0 mm | - | 714 W/m² | - |
* Rain latest hour (hover to see other rain measurements)
** Current wind speed in m/s (hover to see current wind gust speed)